When you browse on this site, cookies collect data to enhance your experience and personalize the content and advertising you see.
Visit our Privacy Policy to learn more. By continuing to use the site, you agree to this use of cookies and data.
  • In Österreich
  • Länderverzeichnis
  • Für 7 Tage
  • Wassertemperatur
  • Wetterkarte
  • News
  • Widgets
  • user-avatar
    Anmelden

    Stündliche Wetter Singuilucan

    Heute, 19 August, Montag

    Zeit Temperatur Niederschläge Wind Luftdruck Luftfeuchtigkeit
    00:00 +12°C° 0 mm 1 m/S 555 mmHg 95%
    01:00 +12°C° 0 mm 1 m/S 554 mmHg 95%
    02:00 +11°C° 0 mm 1 m/S 554 mmHg 95%
    03:00 +11°C° 0 mm 1 m/S 554 mmHg 95%
    04:00 +11°C° 0 mm 1 m/S 554 mmHg 95%
    05:00 +11°C° 0 mm 1 m/S 554 mmHg 95%
    06:00 +12°C° 0 mm 1 m/S 555 mmHg 89%
    07:00 +14°C° 0 mm 2 m/S 556 mmHg 82%
    08:00 +15°C° 0 mm 2 m/S 556 mmHg 75%
    09:00 +17°C° 0 mm 3 m/S 557 mmHg 68%
    10:00 +18°C° 0 mm 4 m/S 558 mmHg 62%
    11:00 +20°C° 0 mm 6 m/S 559 mmHg 56%
    12:00 +19°C° 0.2 mm 6 m/S 558 mmHg 59%
    13:00 +18°C° 0.2 mm 7 m/S 557 mmHg 61%
    14:00 +18°C° 0.2 mm 7 m/S 557 mmHg 64%
    15:00 +16°C° 0.1 mm 6 m/S 556 mmHg 68%
    16:00 +15°C° 0.1 mm 5 m/S 556 mmHg 73%
    17:00 +14°C° 0.1 mm 5 m/S 555 mmHg 78%
    18:00 +13°C° 0 mm 4 m/S 555 mmHg 83%
    19:00 +11°C° 0 mm 3 m/S 555 mmHg 89%
    20:00 +10°C° 0 mm 2 m/S 554 mmHg 94%
    21:00 +10°C° 0 mm 2 m/S 554 mmHg 93%
    22:00 +9°C° 0 mm 2 m/S 554 mmHg 93%
    23:00 +8°C° 0 mm 2 m/S 554 mmHg 92%

    Morgen, 20 August, Dienstag

    Zeit Temperatur Niederschläge Wind Luftdruck Luftfeuchtigkeit
    00:00 +8°C° 0 mm 2 m/S 553 mmHg 91%
    01:00 +8°C° 0 mm 1 m/S 553 mmHg 91%
    02:00 +8°C° 0 mm 1 m/S 553 mmHg 90%
    03:00 +7°C° 0 mm 1 m/S 553 mmHg 89%
    04:00 +7°C° 0 mm 1 m/S 553 mmHg 88%
    05:00 +7°C° 0 mm 1 m/S 553 mmHg 88%
    06:00 +9°C° 0 mm 1 m/S 554 mmHg 80%
    07:00 +12°C° 0 mm 1 m/S 556 mmHg 72%
    08:00 +14°C° 0 mm 2 m/S 557 mmHg 64%
    09:00 +16°C° 0 mm 2 m/S 558 mmHg 60%
    10:00 +17°C° 0 mm 3 m/S 558 mmHg 57%
    11:00 +19°C° 0 mm 4 m/S 559 mmHg 53%
    12:00 +19°C° 0.1 mm 4 m/S 558 mmHg 57%
    13:00 +19°C° 0.1 mm 5 m/S 558 mmHg 61%
    14:00 +19°C° 0.1 mm 5 m/S 557 mmHg 65%
    15:00 +16°C° 0.2 mm 5 m/S 556 mmHg 71%
    16:00 +15°C° 0.2 mm 5 m/S 556 mmHg 78%
    17:00 +13°C° 0.2 mm 4 m/S 555 mmHg 84%
    18:00 +12°C° 0 mm 4 m/S 555 mmHg 88%
    19:00 +11°C° 0 mm 3 m/S 555 mmHg 91%
    20:00 +10°C° 0 mm 3 m/S 555 mmHg 95%
    21:00 +10°C° 0 mm 2 m/S 555 mmHg 94%
    22:00 +10°C° 0 mm 2 m/S 555 mmHg 92%
    23:00 +10°C° 0 mm 2 m/S 556 mmHg 91%

    übermorgen, 21 August, Mittwoch

    Zeit Temperatur Niederschläge Wind Luftdruck Luftfeuchtigkeit
    00:00 +11°C° 0 mm 1 m/S 555 mmHg 91%
    01:00 +11°C° 0 mm 1 m/S 555 mmHg 91%
    02:00 +10°C° 0 mm 1 m/S 554 mmHg 91%
    03:00 +10°C° 0 mm 1 m/S 554 mmHg 92%
    04:00 +10°C° 0 mm 1 m/S 554 mmHg 92%
    05:00 +10°C° 0 mm 1 m/S 554 mmHg 92%
    06:00 +11°C° 0 mm 1 m/S 555 mmHg 86%
    07:00 +12°C° 0 mm 1 m/S 556 mmHg 80%
    08:00 +14°C° 0 mm 1 m/S 557 mmHg 74%
    09:00 +16°C° 0 mm 2 m/S 558 mmHg 67%
    10:00 +18°C° 0 mm 2 m/S 558 mmHg 60%
    11:00 +19°C° 0 mm 3 m/S 559 mmHg 53%
    12:00 +19°C° 0.2 mm 3 m/S 558 mmHg 57%
    13:00 +19°C° 0.2 mm 4 m/S 558 mmHg 61%
    14:00 +19°C° 0.2 mm 4 m/S 557 mmHg 66%
    15:00 +17°C° 0.4 mm 4 m/S 556 mmHg 71%
    16:00 +15°C° 0.4 mm 4 m/S 556 mmHg 76%
    17:00 +14°C° 0.4 mm 4 m/S 555 mmHg 82%
    18:00 +12°C° 0.4 mm 3 m/S 555 mmHg 86%
    19:00 +12°C° 0.4 mm 2 m/S 555 mmHg 90%
    20:00 +11°C° 0.4 mm 1 m/S 554 mmHg 94%
    21:00 +11°C° 1 mm 1 m/S 555 mmHg 94%
    22:00 +11°C° 1 mm 1 m/S 555 mmHg 93%
    23:00 +12°C° 1 mm 1 m/S 555 mmHg 93%

    22 August, Donnerstag

    Zeit Temperatur Niederschläge Wind Luftdruck Luftfeuchtigkeit
    00:00 +11°C° 0 mm 1 m/S 555 mmHg 93%
    01:00 +11°C° 0 mm 1 m/S 554 mmHg 93%
    02:00 +11°C° 0 mm 1 m/S 553 mmHg 92%
    03:00 +11°C° 0 mm 1 m/S 554 mmHg 93%
    04:00 +10°C° 0 mm 1 m/S 554 mmHg 93%
    05:00 +10°C° 0 mm 1 m/S 554 mmHg 93%
    06:00 +12°C° 0 mm 1 m/S 555 mmHg 87%
    07:00 +14°C° 0 mm 1 m/S 556 mmHg 80%
    08:00 +16°C° 0 mm 1 m/S 558 mmHg 74%
    09:00 +18°C° 0.5 mm 1 m/S 558 mmHg 70%
    10:00 +19°C° 0.5 mm 1 m/S 558 mmHg 66%
    11:00 +20°C° 0.5 mm 1 m/S 559 mmHg 62%
    12:00 +20°C° 2 mm 1 m/S 558 mmHg 65%
    13:00 +19°C° 2 mm 2 m/S 557 mmHg 68%
    14:00 +19°C° 2 mm 2 m/S 557 mmHg 72%
    15:00 +18°C° 2.1 mm 2 m/S 556 mmHg 77%
    16:00 +17°C° 2.1 mm 2 m/S 555 mmHg 82%
    17:00 +16°C° 2.1 mm 2 m/S 555 mmHg 87%
    18:00 +15°C° 1.6 mm 2 m/S 555 mmHg 88%
    19:00 +14°C° 1.6 mm 2 m/S 555 mmHg 90%
    20:00 +13°C° 1.6 mm 2 m/S 555 mmHg 91%
    21:00 +13°C° 0.3 mm 2 m/S 555 mmHg 91%
    22:00 +13°C° 0.3 mm 2 m/S 555 mmHg 92%
    23:00 +12°C° 0.3 mm 2 m/S 555 mmHg 93%

    23 August, Freitag

    Zeit Temperatur Niederschläge Wind Luftdruck Luftfeuchtigkeit
    00:00 +12°C° 0 mm 2 m/S 555 mmHg 93%
    01:00 +12°C° 0 mm 2 m/S 555 mmHg 93%
    02:00 +12°C° 0 mm 2 m/S 555 mmHg 93%
    03:00 +12°C° 0 mm 1 m/S 555 mmHg 93%
    04:00 +12°C° 0 mm 1 m/S 555 mmHg 92%
    05:00 +12°C° 0 mm 1 m/S 555 mmHg 92%
    06:00 +13°C° 0 mm 1 m/S 556 mmHg 88%
    07:00 +14°C° 0 mm 1 m/S 557 mmHg 83%
    08:00 +15°C° 0 mm 1 m/S 557 mmHg 78%
    09:00 +18°C° 0.5 mm 1 m/S 558 mmHg 74%
    10:00 +18°C° 0.5 mm 2 m/S 558 mmHg 70%
    11:00 +19°C° 0.5 mm 2 m/S 559 mmHg 66%
    12:00 +19°C° 1.9 mm 2 m/S 558 mmHg 67%
    13:00 +19°C° 1.9 mm 2 m/S 558 mmHg 68%
    14:00 +19°C° 1.9 mm 2 m/S 557 mmHg 69%
    15:00 +18°C° 0.9 mm 2 m/S 557 mmHg 73%
    16:00 +17°C° 0.9 mm 2 m/S 557 mmHg 77%
    17:00 +17°C° 0.9 mm 2 m/S 556 mmHg 81%
    18:00 +16°C° 0.3 mm 2 m/S 556 mmHg 83%
    19:00 +14°C° 0.3 mm 1 m/S 556 mmHg 86%
    20:00 +13°C° 0.3 mm 1 m/S 556 mmHg 88%
    21:00 +13°C° 0.1 mm 1 m/S 556 mmHg 88%
    22:00 +13°C° 0.1 mm 1 m/S 556 mmHg 88%
    23:00 +12°C° 0.1 mm 1 m/S 556 mmHg 87%

    24 August, Samstag

    Zeit Temperatur Niederschläge Wind Luftdruck Luftfeuchtigkeit
    00:00 +12°C° 0 mm 1 m/S 556 mmHg 87%
    01:00 +12°C° 0 mm 1 m/S 555 mmHg 87%
    02:00 +11°C° 0 mm 0 m/S 555 mmHg 86%
    03:00 +11°C° 0 mm 1 m/S 555 mmHg 86%
    04:00 +11°C° 0 mm 1 m/S 555 mmHg 86%
    05:00 +11°C° 0 mm 1 m/S 555 mmHg 85%
    06:00 +13°C° 0 mm 1 m/S 556 mmHg 79%
    07:00 +14°C° 0 mm 0 m/S 558 mmHg 73%
    08:00 +15°C° 0 mm 0 m/S 559 mmHg 67%
    09:00 +17°C° 0.1 mm 0 m/S 559 mmHg 60%
    10:00 +20°C° 0.1 mm 1 m/S 560 mmHg 52%
    11:00 +22°C° 0.1 mm 1 m/S 560 mmHg 45%
    12:00 +20°C° 0.4 mm 2 m/S 560 mmHg 50%
    13:00 +20°C° 0.4 mm 2 m/S 559 mmHg 55%
    14:00 +19°C° 0.4 mm 3 m/S 558 mmHg 60%
    15:00 +18°C° 0.9 mm 3 m/S 558 mmHg 66%
    16:00 +17°C° 0.9 mm 2 m/S 557 mmHg 72%
    17:00 +16°C° 0.9 mm 2 m/S 556 mmHg 78%
    18:00 +15°C° 0.1 mm 2 m/S 556 mmHg 80%
    19:00 +14°C° 0.1 mm 1 m/S 556 mmHg 81%
    20:00 +13°C° 0.1 mm 1 m/S 555 mmHg 83%
    21:00 +13°C° 0 mm 1 m/S 555 mmHg 82%
    22:00 +12°C° 0 mm 1 m/S 555 mmHg 80%
    23:00 +12°C° 0 mm 1 m/S 555 mmHg 79%
    Mehr zeigen